Location: Conflandey
(47.7287°N, 6.0456°E)
Time: 20:11:51
(UTC+00:00)

Cosmos 1825 Rocket - Pass Details

Date: 24 October 2021
Orbit: 604 x 630 km, 82.5° (Epoch: 05 December)

Event Time Altitude Azimuth Distance (km) Brightness Sun altitude
Rises 18:07:04 0° 357° (N) 2,877 7.0 -16.8°
Reaches altitude 10° 18:09:26 10° 5° (N) 1,966 6.1 -17.2°
Maximum altitude 18:13:30 38° 74° (ENE) 924 3.9 -17.8°
Enters shadow 18:13:49 38° 86° (E) 934 3.9 -17.9°
